Time,TemperatureF,DewpointF,PressureIn,WindDirection,WindDirectionDegrees,WindSpeedMPH,WindSpeedGustMPH,Humidity,HourlyPrecipIn,Conditions,Clouds,dailyrainin,SoftwareType,DateUTC
2013-10-15 00:01:00,52.9,49.5,30.28,SE,135,0.0,2.0,88,0.00,,,0.00,meteohub,2013-10-15 04:01:00,
2013-10-15 00:02:00,52.9,49.5,30.28,ESE,113,2.0,2.0,88,0.00,,,0.00,meteohub,2013-10-15 04:02:00,
2013-10-15 00:03:00,52.9,49.5,30.28,ESE,113,2.0,2.0,88,0.00,,,0.00,meteohub,2013-10-15 04:03:00,
2013-10-15 00:05:00,52.9,49.5,30.27,SE,135,0.0,2.0,88,0.00,,,0.00,meteohub,2013-10-15 04:05:00,
2013-10-15 00:10:00,52.9,49.5,30.27,ENE,68,2.0,2.0,88,0.00,,,0.00,meteohub,2013-10-15 04:10:00,
2013-10-15 00:15:00,52.9,49.5,30.27,ENE,68,2.0,2.0,88,0.00,,,0.00,meteohub,2013-10-15 04:15:00,
2013-10-15 00:20:00,52.9,49.5,30.27,ENE,68,2.0,2.0,88,0.00,,,0.00,meteohub,2013-10-15 04:20:00,
2013-10-15 00:25:00,53.1,49.6,30.27,East,90,2.0,2.0,88,0.00,,,0.00,meteohub,2013-10-15 04:25:00,
2013-10-15 00:30:00,53.1,49.6,30.27,East,90,2.0,3.0,88,0.00,,,0.00,meteohub,2013-10-15 04:30:00,
2013-10-15 00:36:00,53.1,49.6,30.27,East,90,1.0,3.0,88,0.00,,,0.00,meteohub,2013-10-15 04:36:00,
2013-10-15 00:41:00,52.9,49.5,30.27,SE,135,3.0,3.0,88,0.00,,,0.00,meteohub,2013-10-15 04:41:00,
2013-10-15 00:46:00,52.9,49.5,30.27,SE,135,2.0,3.0,88,0.00,,,0.00,meteohub,2013-10-15 04:46:00,
2013-10-15 00:51:00,52.9,49.5,30.27,SE,135,0.0,3.0,88,0.00,,,0.00,meteohub,2013-10-15 04:51:00,
2013-10-15 00:56:00,52.7,49.3,30.27,ESE,113,2.0,3.0,88,0.00,,,0.00,meteohub,2013-10-15 04:56:00,
2013-10-15 01:01:00,52.7,49.3,30.27,East,90,1.0,2.0,88,0.00,,,0.00,meteohub,2013-10-15 05:01:00,
2013-10-15 01:06:00,52.5,49.1,30.27,ENE,68,2.0,2.0,88,0.00,,,0.00,meteohub,2013-10-15 05:06:00,
2013-10-15 01:11:00,52.7,49.5,30.27,East,90,4.0,4.0,89,0.00,,,0.00,meteohub,2013-10-15 05:11:00,
2013-10-15 01:16:00,52.9,49.6,30.27,ENE,68,2.0,4.0,89,0.00,,,0.00,meteohub,2013-10-15 05:16:00,
2013-10-15 01:21:00,52.9,49.6,30.27,ENE,68,3.0,4.0,89,0.00,,,0.00,meteohub,2013-10-15 05:21:00,
2013-10-15 01:27:00,52.9,49.6,30.26,ENE,68,3.0,4.0,89,0.00,,,0.00,meteohub,2013-10-15 05:27:00,
2013-10-15 01:32:00,53.1,49.8,30.26,ENE,68,4.0,4.0,89,0.00,,,0.00,meteohub,2013-10-15 05:32:00,
2013-10-15 01:37:00,52.9,49.6,30.26,ESE,113,2.0,4.0,89,0.00,,,0.00,meteohub,2013-10-15 05:37:00,
2013-10-15 01:42:00,52.9,49.6,30.26,ENE,68,3.0,4.0,89,0.00,,,0.00,meteohub,2013-10-15 05:42:00,
2013-10-15 01:47:00,52.9,49.6,30.26,East,90,3.0,4.0,89,0.00,,,0.00,meteohub,2013-10-15 05:47:00,
2013-10-15 01:52:00,52.9,49.6,30.26,ENE,68,3.0,3.0,89,0.00,,,0.00,meteohub,2013-10-15 05:52:00,
2013-10-15 01:57:00,52.9,49.6,30.26,ENE,68,3.0,3.0,89,0.00,,,0.00,meteohub,2013-10-15 05:57:00,
2013-10-15 02:02:00,52.7,49.5,30.26,NE,45,3.0,3.0,89,0.00,,,0.00,meteohub,2013-10-15 06:02:00,
2013-10-15 02:07:00,52.7,49.5,30.26,NE,45,3.0,3.0,89,0.00,,,0.00,meteohub,2013-10-15 06:07:00,
2013-10-15 02:12:00,52.7,49.5,30.26,ENE,68,3.0,3.0,89,0.00,,,0.00,meteohub,2013-10-15 06:12:00,
2013-10-15 02:17:00,52.5,49.5,30.26,NE,45,2.0,5.0,89,0.00,,,0.00,meteohub,2013-10-15 06:17:00,
2013-10-15 02:22:00,52.3,49.3,30.26,ENE,68,4.0,5.0,89,0.00,,,0.00,meteohub,2013-10-15 06:22:00,
2013-10-15 02:27:00,52.3,49.3,30.26,NE,45,4.0,4.0,89,0.00,,,0.00,meteohub,2013-10-15 06:27:00,
2013-10-15 02:32:00,52.2,49.1,30.26,ENE,68,4.0,4.0,89,0.00,,,0.00,meteohub,2013-10-15 06:32:00,
2013-10-15 02:37:00,52.2,49.1,30.26,ENE,68,2.0,4.0,89,0.00,,,0.00,meteohub,2013-10-15 06:37:00,
2013-10-15 02:42:00,52.3,49.3,30.26,ENE,68,3.0,4.0,89,0.00,,,0.00,meteohub,2013-10-15 06:42:00,
2013-10-15 02:47:00,52.2,49.1,30.26,ENE,68,3.0,4.0,89,0.00,,,0.00,meteohub,2013-10-15 06:47:00,
2013-10-15 02:52:00,52.3,49.3,30.26,ENE,68,4.0,4.0,89,0.00,,,0.00,meteohub,2013-10-15 06:52:00,
2013-10-15 02:57:00,52.3,49.3,30.26,ENE,68,3.0,4.0,89,0.00,,,0.00,meteohub,2013-10-15 06:57:00,
2013-10-15 03:02:00,52.2,49.1,30.26,ENE,68,2.0,4.0,89,0.00,,,0.00,meteohub,2013-10-15 07:02:00,
2013-10-15 03:07:00,52.2,49.1,30.24,ENE,68,1.0,4.0,89,0.00,,,0.00,meteohub,2013-10-15 07:07:00,
2013-10-15 03:12:00,52.2,49.1,30.24,ENE,68,1.0,3.0,89,0.00,,,0.00,meteohub,2013-10-15 07:12:00,
2013-10-15 03:17:00,52.0,48.9,30.24,ENE,68,2.0,3.0,89,0.00,,,0.00,meteohub,2013-10-15 07:17:00,
2013-10-15 03:22:00,52.0,48.9,30.24,ESE,113,3.0,3.0,89,0.00,,,0.00,meteohub,2013-10-15 07:22:00,
2013-10-15 03:27:00,52.0,48.9,30.24,ESE,113,4.0,4.0,89,0.00,,,0.00,meteohub,2013-10-15 07:27:00,
2013-10-15 03:32:00,52.0,48.9,30.24,SE,135,3.0,4.0,89,0.00,,,0.00,meteohub,2013-10-15 07:32:00,
2013-10-15 03:37:00,51.8,48.7,30.24,SE,135,3.0,4.0,89,0.00,,,0.00,meteohub,2013-10-15 07:37:00,
2013-10-15 03:42:00,51.8,48.7,30.24,ESE,113,3.0,4.0,89,0.00,,,0.00,meteohub,2013-10-15 07:42:00,
2013-10-15 03:47:00,52.0,48.9,30.24,ESE,113,3.0,4.0,89,0.00,,,0.00,meteohub,2013-10-15 07:47:00,
2013-10-15 03:52:00,52.0,48.9,30.24,SE,135,3.0,3.0,89,0.00,,,0.00,meteohub,2013-10-15 07:52:00,
2013-10-15 03:57:00,52.0,48.9,30.24,SE,135,3.0,3.0,89,0.00,,,0.00,meteohub,2013-10-15 07:57:00,
2013-10-15 04:02:00,52.0,48.9,30.24,SE,135,3.0,4.0,89,0.00,,,0.00,meteohub,2013-10-15 08:02:00,
2013-10-15 04:07:00,52.0,48.9,30.24,ENE,68,4.0,4.0,89,0.00,,,0.00,meteohub,2013-10-15 08:07:00,
2013-10-15 04:12:00,52.0,49.1,30.24,ENE,68,3.0,4.0,90,0.00,,,0.00,meteohub,2013-10-15 08:12:00,
2013-10-15 04:17:00,52.3,49.5,30.24,East,90,3.0,4.0,90,0.00,,,0.00,meteohub,2013-10-15 08:17:00,
2013-10-15 04:22:00,52.3,49.5,30.24,ENE,68,2.0,6.0,90,0.00,,,0.00,meteohub,2013-10-15 08:22:00,
2013-10-15 04:27:00,52.3,49.5,30.24,NE,45,3.0,6.0,90,0.00,,,0.00,meteohub,2013-10-15 08:27:00,
2013-10-15 04:32:00,52.2,49.3,30.24,ENE,68,4.0,4.0,90,0.00,,,0.00,meteohub,2013-10-15 08:32:00,
2013-10-15 04:37:00,52.3,49.5,30.24,ENE,68,4.0,5.0,90,0.00,,,0.00,meteohub,2013-10-15 08:37:00,
2013-10-15 04:42:00,52.2,49.3,30.24,ENE,68,2.0,5.0,90,0.00,,,0.00,meteohub,2013-10-15 08:42:00,
2013-10-15 04:47:00,52.2,49.3,30.24,ENE,68,4.0,5.0,90,0.00,,,0.00,meteohub,2013-10-15 08:47:00,
2013-10-15 04:51:00,52.0,49.1,30.24,ENE,68,4.0,4.0,90,0.00,,,0.00,meteohub,2013-10-15 08:51:00,
2013-10-15 04:56:00,51.8,48.9,30.24,East,90,4.0,4.0,90,0.00,,,0.00,meteohub,2013-10-15 08:56:00,
2013-10-15 05:01:00,52.0,49.1,30.24,NNE,23,2.0,5.0,90,0.00,,,0.00,meteohub,2013-10-15 09:01:00,
2013-10-15 05:06:00,51.6,48.7,30.24,North,0,3.0,5.0,90,0.00,,,0.00,meteohub,2013-10-15 09:06:00,
2013-10-15 05:11:00,51.4,48.6,30.24,NE,45,2.0,4.0,90,0.00,,,0.00,meteohub,2013-10-15 09:11:00,
2013-10-15 05:17:00,51.6,48.7,30.24,NNE,23,2.0,3.0,90,0.00,,,0.00,meteohub,2013-10-15 09:17:00,
2013-10-15 05:22:00,51.6,48.7,30.24,SE,135,2.0,3.0,90,0.00,,,0.00,meteohub,2013-10-15 09:22:00,
2013-10-15 05:27:00,51.4,48.6,30.24,NE,45,0.0,2.0,90,0.00,,,0.00,meteohub,2013-10-15 09:27:00,
2013-10-15 05:32:00,51.4,48.6,30.24,ESE,113,3.0,3.0,90,0.00,,,0.00,meteohub,2013-10-15 09:32:00,
2013-10-15 05:37:00,51.4,48.6,30.24,SE,135,0.0,2.0,90,0.00,,,0.00,meteohub,2013-10-15 09:37:00,
2013-10-15 05:42:00,51.4,48.6,30.24,ENE,68,2.0,3.0,90,0.00,,,0.00,meteohub,2013-10-15 09:42:00,
2013-10-15 05:47:00,51.3,48.4,30.25,ENE,68,2.0,3.0,90,0.00,,,0.00,meteohub,2013-10-15 09:47:00,
2013-10-15 05:52:00,51.3,48.4,30.25,East,90,4.0,4.0,90,0.00,,,0.00,meteohub,2013-10-15 09:52:00,
2013-10-15 05:57:00,51.3,48.4,30.25,ESE,113,4.0,4.0,90,0.00,,,0.00,meteohub,2013-10-15 09:57:00,
2013-10-15 06:02:00,51.6,48.7,30.25,ENE,68,0.0,4.0,90,0.00,,,0.00,meteohub,2013-10-15 10:02:00,
2013-10-15 06:07:00,51.6,48.7,30.25,ESE,113,3.0,4.0,90,0.00,,,0.00,meteohub,2013-10-15 10:07:00,
2013-10-15 06:12:00,51.6,48.7,30.25,ESE,113,3.0,4.0,90,0.00,,,0.00,meteohub,2013-10-15 10:12:00,
2013-10-15 06:17:00,51.6,48.7,30.25,ESE,113,3.0,4.0,90,0.00,,,0.00,meteohub,2013-10-15 10:17:00,
2013-10-15 06:22:00,51.4,48.6,30.25,NE,45,3.0,3.0,90,0.00,,,0.00,meteohub,2013-10-15 10:22:00,
2013-10-15 06:27:00,51.3,48.4,30.25,ENE,68,3.0,4.0,90,0.00,,,0.00,meteohub,2013-10-15 10:27:00,
2013-10-15 06:32:00,51.3,48.4,30.25,ENE,68,5.0,5.0,90,0.00,,,0.00,meteohub,2013-10-15 10:32:00,
2013-10-15 06:37:00,51.3,48.4,30.25,ENE,68,3.0,5.0,90,0.00,,,0.00,meteohub,2013-10-15 10:37:00,
2013-10-15 06:42:00,51.3,48.4,30.25,ENE,68,2.0,5.0,90,0.00,,,0.00,meteohub,2013-10-15 10:42:00,
2013-10-15 06:47:00,51.3,48.4,30.25,ENE,68,4.0,5.0,90,0.00,,,0.00,meteohub,2013-10-15 10:47:00,
2013-10-15 06:52:00,51.3,48.4,30.25,ENE,68,0.0,4.0,90,0.00,,,0.00,meteohub,2013-10-15 10:52:00,
2013-10-15 06:57:00,50.9,48.0,30.25,ENE,68,2.0,4.0,90,0.00,,,0.00,meteohub,2013-10-15 10:57:00,
2013-10-15 07:02:00,50.9,48.0,30.25,ENE,68,0.0,4.0,90,0.00,,,0.00,meteohub,2013-10-15 11:02:00,
2013-10-15 07:07:00,50.9,48.0,30.25,North,0,0.0,2.0,90,0.00,,,0.00,meteohub,2013-10-15 11:07:00,
2013-10-15 07:12:00,50.7,47.8,30.25,WNW,293,2.0,2.0,90,0.00,,,0.00,meteohub,2013-10-15 11:12:00,
2013-10-15 07:17:00,50.9,48.0,30.25,ESE,113,3.0,3.0,90,0.00,,,0.00,meteohub,2013-10-15 11:17:00,
2013-10-15 07:22:00,51.3,48.4,30.25,NW,315,4.0,4.0,90,0.00,,,0.00,meteohub,2013-10-15 11:22:00,
2013-10-15 07:28:00,51.4,48.6,30.24,NNE,23,2.0,4.0,90,0.00,,,0.00,meteohub,2013-10-15 11:28:00,
2013-10-15 07:33:00,51.4,48.6,30.24,East,90,0.0,4.0,90,0.00,,,0.00,meteohub,2013-10-15 11:33:00,
2013-10-15 07:38:00,51.6,48.7,30.24,East,90,5.0,5.0,90,0.00,,,0.00,meteohub,2013-10-15 11:38:00,
2013-10-15 07:43:00,52.0,49.1,30.25,ENE,68,4.0,5.0,90,0.00,,,0.00,meteohub,2013-10-15 11:43:00,
2013-10-15 07:48:00,52.0,49.1,30.25,ENE,68,6.0,6.0,90,0.00,,,0.00,meteohub,2013-10-15 11:48:00,
2013-10-15 07:53:00,51.8,48.9,30.25,ENE,68,4.0,6.0,90,0.00,,,0.00,meteohub,2013-10-15 11:53:00,
2013-10-15 07:58:00,52.2,49.3,30.25,ENE,68,3.0,6.0,90,0.00,,,0.00,meteohub,2013-10-15 11:58:00,
2013-10-15 08:03:00,52.2,49.3,30.25,ENE,68,5.0,7.0,90,0.00,,,0.00,meteohub,2013-10-15 12:03:00,
2013-10-15 08:08:00,52.2,49.3,30.25,East,90,5.0,7.0,90,0.00,,,0.00,meteohub,2013-10-15 12:08:00,
2013-10-15 08:13:00,52.7,49.8,30.25,ESE,113,1.0,7.0,90,0.00,,,0.00,meteohub,2013-10-15 12:13:00,
2013-10-15 08:18:00,52.7,49.8,30.25,WNW,293,2.0,6.0,90,0.00,,,0.00,meteohub,2013-10-15 12:18:00,
2013-10-15 08:24:00,53.1,50.2,30.24,East,90,2.0,6.0,90,0.00,,,0.00,meteohub,2013-10-15 12:24:00,
2013-10-15 08:29:00,53.4,50.5,30.24,ESE,113,4.0,5.0,90,0.00,,,0.00,meteohub,2013-10-15 12:29:00,
2013-10-15 08:34:00,53.4,50.5,30.24,ESE,113,4.0,4.0,90,0.00,,,0.00,meteohub,2013-10-15 12:34:00,
2013-10-15 08:39:00,53.6,50.7,30.24,ESE,113,5.0,5.0,90,0.00,,,0.00,meteohub,2013-10-15 12:39:00,
2013-10-15 08:44:00,54.0,51.1,30.26,ESE,113,4.0,5.0,90,0.00,,,0.00,meteohub,2013-10-15 12:44:00,
2013-10-15 08:49:00,54.1,51.3,30.26,ENE,68,4.0,6.0,90,0.00,,,0.00,meteohub,2013-10-15 12:49:00,
2013-10-15 08:54:00,54.0,50.7,30.26,ESE,113,5.0,6.0,89,0.00,,,0.00,meteohub,2013-10-15 12:54:00,
2013-10-15 09:00:00,54.1,50.9,30.26,ENE,68,4.0,6.0,89,0.00,,,0.00,meteohub,2013-10-15 13:00:00,
2013-10-15 09:05:00,54.3,51.1,30.24,East,90,4.0,5.0,89,0.00,,,0.00,meteohub,2013-10-15 13:05:00,
2013-10-15 09:10:00,54.3,51.1,30.24,ENE,68,4.0,5.0,89,0.00,,,0.00,meteohub,2013-10-15 13:10:00,
2013-10-15 09:15:00,54.5,51.1,30.24,SE,135,5.0,6.0,88,0.00,,,0.00,meteohub,2013-10-15 13:15:00,
2013-10-15 09:20:00,54.9,51.4,30.24,SSE,158,3.0,6.0,88,0.00,,,0.00,meteohub,2013-10-15 13:20:00,
2013-10-15 09:25:00,54.9,51.4,30.25,ESE,113,4.0,5.0,88,0.00,,,0.00,meteohub,2013-10-15 13:25:00,
2013-10-15 09:30:00,54.9,51.4,30.25,ESE,113,4.0,5.0,88,0.00,,,0.00,meteohub,2013-10-15 13:30:00,
2013-10-15 09:35:00,55.2,51.8,30.25,SE,135,4.0,4.0,88,0.00,,,0.00,meteohub,2013-10-15 13:35:00,
2013-10-15 09:40:00,55.2,51.8,30.25,East,90,4.0,4.0,88,0.00,,,0.00,meteohub,2013-10-15 13:40:00,
2013-10-15 09:45:00,55.6,51.8,30.25,ESE,113,2.0,4.0,87,0.00,,,0.00,meteohub,2013-10-15 13:45:00,
2013-10-15 09:50:00,55.6,51.8,30.25,East,90,5.0,5.0,87,0.00,,,0.00,meteohub,2013-10-15 13:50:00,
2013-10-15 09:56:00,55.8,51.6,30.25,NNW,338,2.0,5.0,86,0.00,,,0.00,meteohub,2013-10-15 13:56:00,
2013-10-15 10:01:00,55.9,51.8,30.25,SE,135,6.0,6.0,86,0.00,,,0.00,meteohub,2013-10-15 14:01:00,
2013-10-15 10:06:00,56.3,52.2,30.24,SE,135,4.0,6.0,86,0.00,,,0.00,meteohub,2013-10-15 14:06:00,
2013-10-15 10:11:00,56.5,52.3,30.24,NNE,23,4.0,7.0,86,0.00,,,0.00,meteohub,2013-10-15 14:11:00,
2013-10-15 10:16:00,56.7,52.2,30.24,ENE,68,3.0,7.0,85,0.00,,,0.00,meteohub,2013-10-15 14:16:00,
2013-10-15 10:21:00,56.8,52.0,30.24,ESE,113,4.0,7.0,84,0.00,,,0.00,meteohub,2013-10-15 14:21:00,
2013-10-15 10:26:00,57.4,52.5,30.23,SE,135,6.0,6.0,84,0.00,,,0.00,meteohub,2013-10-15 14:26:00,
2013-10-15 10:31:00,57.2,52.2,30.23,East,90,4.0,6.0,83,0.00,,,0.00,meteohub,2013-10-15 14:31:00,
2013-10-15 10:36:00,57.7,52.3,30.23,ESE,113,2.0,6.0,82,0.00,,,0.00,meteohub,2013-10-15 14:36:00,
2013-10-15 10:41:00,57.7,52.0,30.23,ENE,68,2.0,6.0,81,0.00,,,0.00,meteohub,2013-10-15 14:41:00,
2013-10-15 10:47:00,57.9,52.2,30.26,SSE,158,5.0,5.0,81,0.00,,,0.00,meteohub,2013-10-15 14:47:00,
2013-10-15 10:52:00,58.3,52.5,30.26,South,180,6.0,7.0,81,0.00,,,0.00,meteohub,2013-10-15 14:52:00,
2013-10-15 10:57:00,58.6,52.5,30.26,SSE,158,6.0,7.0,80,0.00,,,0.00,meteohub,2013-10-15 14:57:00,
2013-10-15 11:02:00,59.2,53.1,30.26,South,180,7.0,7.0,80,0.00,,,0.00,meteohub,2013-10-15 15:02:00,
2013-10-15 11:07:00,59.4,53.2,30.32,SSE,158,8.0,9.0,80,0.00,,,0.00,meteohub,2013-10-15 15:07:00,
2013-10-15 11:12:00,59.7,53.6,30.32,SE,135,5.0,9.0,80,0.00,,,0.00,meteohub,2013-10-15 15:12:00,
2013-10-15 11:17:00,59.7,53.6,30.32,South,180,9.0,9.0,80,0.00,,,0.00,meteohub,2013-10-15 15:17:00,
2013-10-15 11:22:00,60.1,54.0,30.32,SE,135,5.0,9.0,80,0.00,,,0.00,meteohub,2013-10-15 15:22:00,
2013-10-15 11:27:00,60.4,54.3,30.30,SSE,158,9.0,10.0,80,0.00,,,0.00,meteohub,2013-10-15 15:27:00,
2013-10-15 11:32:00,60.6,54.1,30.30,SE,135,9.0,10.0,79,0.00,,,0.00,meteohub,2013-10-15 15:32:00,
2013-10-15 11:37:00,60.8,54.3,30.30,SSE,158,7.0,10.0,79,0.00,,,0.00,meteohub,2013-10-15 15:37:00,
2013-10-15 11:42:00,61.0,54.5,30.30,SSE,158,9.0,9.0,79,0.00,,,0.00,meteohub,2013-10-15 15:42:00,
2013-10-15 11:47:00,61.3,54.9,30.27,SE,135,9.0,9.0,79,0.00,,,0.00,meteohub,2013-10-15 15:47:00,
2013-10-15 11:52:00,61.5,54.9,30.27,SSE,158,7.0,9.0,79,0.00,,,0.00,meteohub,2013-10-15 15:52:00,
2013-10-15 11:57:00,61.7,55.4,30.27,South,180,6.0,12.0,80,0.00,,,0.00,meteohub,2013-10-15 15:57:00,
2013-10-15 12:02:00,62.1,55.4,30.27,SSE,158,6.0,12.0,79,0.00,,,0.00,meteohub,2013-10-15 16:02:00,
2013-10-15 12:07:00,62.2,55.6,30.26,SSE,158,11.0,11.0,79,0.00,,,0.00,meteohub,2013-10-15 16:07:00,
2013-10-15 12:12:00,62.2,55.6,30.26,SSE,158,11.0,11.0,79,0.00,,,0.00,meteohub,2013-10-15 16:12:00,
2013-10-15 12:17:00,63.0,55.9,30.26,SSE,158,11.0,11.0,78,0.00,,,0.00,meteohub,2013-10-15 16:17:00,
2013-10-15 12:22:00,63.1,56.1,30.26,South,180,9.0,11.0,78,0.00,,,0.00,meteohub,2013-10-15 16:22:00,
2013-10-15 12:27:00,63.5,56.5,30.24,SSE,158,9.0,13.0,78,0.00,,,0.00,meteohub,2013-10-15 16:27:00,
2013-10-15 12:32:00,63.9,56.8,30.24,South,180,9.0,13.0,78,0.00,,,0.00,meteohub,2013-10-15 16:32:00,
2013-10-15 12:37:00,63.7,56.3,30.24,South,180,10.0,13.0,77,0.00,,,0.00,meteohub,2013-10-15 16:37:00,
2013-10-15 12:42:00,64.0,56.3,30.24,SSE,158,11.0,11.0,76,0.00,,,0.00,meteohub,2013-10-15 16:42:00,
2013-10-15 12:47:00,64.4,56.7,30.24,South,180,10.0,13.0,76,0.00,,,0.00,meteohub,2013-10-15 16:47:00,
2013-10-15 12:52:00,64.6,56.5,30.24,SSE,158,12.0,15.0,75,0.00,,,0.00,meteohub,2013-10-15 16:52:00,
2013-10-15 12:57:00,64.9,56.5,30.24,SSE,158,10.0,15.0,74,0.00,,,0.00,meteohub,2013-10-15 16:57:00,
2013-10-15 13:02:00,65.1,56.7,30.24,South,180,13.0,13.0,74,0.00,,,0.00,meteohub,2013-10-15 17:02:00,
2013-10-15 13:07:00,65.5,57.0,30.22,SSE,158,12.0,13.0,74,0.00,,,0.00,meteohub,2013-10-15 17:07:00,
2013-10-15 13:12:00,65.7,56.8,30.22,South,180,13.0,17.0,73,0.00,,,0.00,meteohub,2013-10-15 17:12:00,
2013-10-15 13:17:00,65.8,57.0,30.22,South,180,9.0,18.0,73,0.00,,,0.00,meteohub,2013-10-15 17:17:00,
2013-10-15 13:22:00,66.4,57.0,30.22,South,180,15.0,18.0,72,0.00,,,0.00,meteohub,2013-10-15 17:22:00,
2013-10-15 13:27:00,66.4,57.0,30.21,South,180,18.0,18.0,72,0.00,,,0.00,meteohub,2013-10-15 17:27:00,
2013-10-15 13:32:00,66.4,56.7,30.21,South,180,13.0,19.0,71,0.00,,,0.00,meteohub,2013-10-15 17:32:00,
2013-10-15 13:37:00,66.7,56.7,30.21,South,180,18.0,19.0,70,0.00,,,0.00,meteohub,2013-10-15 17:37:00,
2013-10-15 13:42:00,66.7,56.3,30.21,South,180,19.0,19.0,69,0.00,,,0.00,meteohub,2013-10-15 17:42:00,
2013-10-15 13:47:00,66.7,56.3,30.21,South,180,13.0,18.0,69,0.00,,,0.00,meteohub,2013-10-15 17:47:00,
2013-10-15 13:52:00,67.1,56.7,30.21,SSE,158,9.0,19.0,69,0.00,,,0.00,meteohub,2013-10-15 17:52:00,
2013-10-15 13:57:00,67.5,56.5,30.21,SSE,158,10.0,19.0,68,0.00,,,0.00,meteohub,2013-10-15 17:57:00,
2013-10-15 14:02:00,67.5,56.1,30.21,South,180,14.0,14.0,67,0.00,,,0.00,meteohub,2013-10-15 18:02:00,
2013-10-15 14:07:00,67.6,55.9,30.21,SSE,158,18.0,18.0,66,0.00,,,0.00,meteohub,2013-10-15 18:07:00,
2013-10-15 14:12:00,67.8,56.1,30.21,SSE,158,13.0,18.0,66,0.00,,,0.00,meteohub,2013-10-15 18:12:00,
2013-10-15 14:17:00,68.0,56.3,30.21,SSE,158,13.0,18.0,66,0.00,,,0.00,meteohub,2013-10-15 18:17:00,
2013-10-15 14:22:00,68.2,55.9,30.21,South,180,14.0,18.0,65,0.00,,,0.00,meteohub,2013-10-15 18:22:00,
2013-10-15 14:27:00,68.0,55.8,30.20,South,180,13.0,17.0,65,0.00,,,0.00,meteohub,2013-10-15 18:27:00,
2013-10-15 14:32:00,68.5,56.3,30.20,South,180,10.0,17.0,65,0.00,,,0.00,meteohub,2013-10-15 18:32:00,
2013-10-15 14:37:00,68.4,56.1,30.20,West,270,11.0,16.0,65,0.00,,,0.00,meteohub,2013-10-15 18:37:00,
2013-10-15 14:42:00,68.7,56.5,30.20,SSE,158,10.0,16.0,65,0.00,,,0.00,meteohub,2013-10-15 18:42:00,
2013-10-15 14:47:00,68.9,56.7,30.19,SSE,158,10.0,16.0,65,0.00,,,0.00,meteohub,2013-10-15 18:47:00,
2013-10-15 14:52:00,69.3,57.0,30.19,SE,135,12.0,13.0,65,0.00,,,0.00,meteohub,2013-10-15 18:52:00,
2013-10-15 14:57:00,69.3,56.5,30.19,SSE,158,14.0,14.0,64,0.00,,,0.00,meteohub,2013-10-15 18:57:00,
2013-10-15 15:02:00,69.1,56.5,30.19,SSE,158,8.0,14.0,64,0.00,,,0.00,meteohub,2013-10-15 19:02:00,
2013-10-15 15:07:00,69.3,56.5,30.20,South,180,7.0,14.0,64,0.00,,,0.00,meteohub,2013-10-15 19:07:00,
2013-10-15 15:12:00,69.6,56.8,30.20,SE,135,12.0,14.0,64,0.00,,,0.00,meteohub,2013-10-15 19:12:00,
2013-10-15 15:17:00,69.3,56.1,30.20,SE,135,8.0,13.0,63,0.00,,,0.00,meteohub,2013-10-15 19:17:00,
2013-10-15 15:22:00,69.4,56.7,30.20,South,180,9.0,15.0,64,0.00,,,0.00,meteohub,2013-10-15 19:22:00,
2013-10-15 15:27:00,69.3,55.8,30.19,South,180,6.0,15.0,62,0.00,,,0.00,meteohub,2013-10-15 19:27:00,
2013-10-15 15:32:00,69.4,55.9,30.19,SSE,158,11.0,11.0,62,0.00,,,0.00,meteohub,2013-10-15 19:32:00,
2013-10-15 15:37:00,69.6,55.6,30.19,SE,135,11.0,11.0,61,0.00,,,0.00,meteohub,2013-10-15 19:37:00,
2013-10-15 15:42:00,69.4,55.4,30.19,South,180,9.0,11.0,61,0.00,,,0.00,meteohub,2013-10-15 19:42:00,
2013-10-15 15:47:00,69.4,54.9,30.19,SSE,158,11.0,11.0,60,0.00,,,0.00,meteohub,2013-10-15 19:47:00,
2013-10-15 15:52:00,69.3,54.3,30.19,SSE,158,11.0,11.0,59,0.00,,,0.00,meteohub,2013-10-15 19:52:00,
2013-10-15 15:57:00,69.3,54.3,30.19,South,180,9.0,11.0,59,0.00,,,0.00,meteohub,2013-10-15 19:57:00,
2013-10-15 16:02:00,69.3,54.9,30.19,SSE,158,7.0,11.0,60,0.00,,,0.00,meteohub,2013-10-15 20:02:00,
2013-10-15 16:07:00,69.4,54.9,30.18,South,180,6.0,11.0,60,0.00,,,0.00,meteohub,2013-10-15 20:07:00,
2013-10-15 16:12:00,69.3,54.3,30.18,South,180,10.0,11.0,59,0.00,,,0.00,meteohub,2013-10-15 20:12:00,
2013-10-15 16:17:00,69.3,54.9,30.18,SSE,158,12.0,12.0,60,0.00,,,0.00,meteohub,2013-10-15 20:17:00,
2013-10-15 16:22:00,68.9,55.4,30.18,SE,135,7.0,12.0,62,0.00,,,0.00,meteohub,2013-10-15 20:22:00,
2013-10-15 16:27:00,69.3,55.8,30.18,South,180,8.0,12.0,62,0.00,,,0.00,meteohub,2013-10-15 20:27:00,
2013-10-15 16:32:00,69.3,55.8,30.18,South,180,10.0,12.0,62,0.00,,,0.00,meteohub,2013-10-15 20:32:00,
2013-10-15 16:37:00,68.9,55.4,30.18,SSE,158,8.0,11.0,62,0.00,,,0.00,meteohub,2013-10-15 20:37:00,
2013-10-15 16:42:00,68.5,55.0,30.18,South,180,13.0,13.0,62,0.00,,,0.00,meteohub,2013-10-15 20:42:00,
2013-10-15 16:47:00,68.5,55.4,30.18,SSE,158,11.0,13.0,63,0.00,,,0.00,meteohub,2013-10-15 20:47:00,
2013-10-15 16:52:00,68.2,55.6,30.18,South,180,11.0,13.0,64,0.00,,,0.00,meteohub,2013-10-15 20:52:00,
2013-10-15 16:57:00,67.8,54.7,30.18,South,180,11.0,13.0,63,0.00,,,0.00,meteohub,2013-10-15 20:57:00,
2013-10-15 17:02:00,67.5,54.9,30.18,South,180,11.0,13.0,64,0.00,,,0.00,meteohub,2013-10-15 21:02:00,
2013-10-15 17:07:00,67.3,54.7,30.19,SSE,158,9.0,16.0,64,0.00,,,0.00,meteohub,2013-10-15 21:07:00,
2013-10-15 17:12:00,67.1,55.4,30.19,South,180,8.0,16.0,66,0.00,,,0.00,meteohub,2013-10-15 21:12:00,
2013-10-15 17:17:00,66.7,55.0,30.19,South,180,12.0,14.0,66,0.00,,,0.00,meteohub,2013-10-15 21:17:00,
2013-10-15 17:22:00,66.2,54.9,30.19,South,180,11.0,15.0,67,0.00,,,0.00,meteohub,2013-10-15 21:22:00,
2013-10-15 17:27:00,65.7,54.9,30.18,South,180,8.0,15.0,68,0.00,,,0.00,meteohub,2013-10-15 21:27:00,
2013-10-15 17:32:00,65.1,54.3,30.18,South,180,12.0,12.0,68,0.00,,,0.00,meteohub,2013-10-15 21:32:00,
2013-10-15 17:37:00,64.9,54.5,30.18,South,180,10.0,13.0,69,0.00,,,0.00,meteohub,2013-10-15 21:37:00,
2013-10-15 17:42:00,64.2,54.3,30.18,South,180,11.0,13.0,70,0.00,,,0.00,meteohub,2013-10-15 21:42:00,
2013-10-15 17:47:00,63.7,53.8,30.18,South,180,12.0,13.0,70,0.00,,,0.00,meteohub,2013-10-15 21:47:00,
2013-10-15 17:52:00,63.1,53.6,30.18,South,180,10.0,12.0,71,0.00,,,0.00,meteohub,2013-10-15 21:52:00,
2013-10-15 17:57:00,62.6,53.1,30.18,SSE,158,9.0,13.0,71,0.00,,,0.00,meteohub,2013-10-15 21:57:00,
2013-10-15 18:02:00,62.2,53.1,30.18,SSE,158,12.0,13.0,72,0.00,,,0.00,meteohub,2013-10-15 22:02:00,
2013-10-15 18:07:00,62.1,52.9,30.17,SSE,158,9.0,13.0,72,0.00,,,0.00,meteohub,2013-10-15 22:07:00,
2013-10-15 18:12:00,61.5,52.7,30.17,SSE,158,10.0,13.0,73,0.00,,,0.00,meteohub,2013-10-15 22:12:00,
2013-10-15 18:17:00,61.3,53.1,30.17,South,180,13.0,13.0,74,0.00,,,0.00,meteohub,2013-10-15 22:17:00,
2013-10-15 18:22:00,61.0,53.1,30.17,SSE,158,13.0,13.0,75,0.00,,,0.00,meteohub,2013-10-15 22:22:00,
2013-10-15 18:27:00,61.0,53.1,30.18,SSE,158,14.0,15.0,75,0.00,,,0.00,meteohub,2013-10-15 22:27:00,
2013-10-15 18:32:00,60.4,52.9,30.18,SSE,158,12.0,15.0,76,0.00,,,0.00,meteohub,2013-10-15 22:32:00,
2013-10-15 18:37:00,60.4,52.9,30.18,SSE,158,13.0,15.0,76,0.00,,,0.00,meteohub,2013-10-15 22:37:00,
2013-10-15 18:42:00,60.1,52.9,30.18,SSE,158,9.0,14.0,77,0.00,,,0.00,meteohub,2013-10-15 22:42:00,
2013-10-15 18:47:00,60.1,52.9,30.19,SSE,158,9.0,14.0,77,0.00,,,0.00,meteohub,2013-10-15 22:47:00,
2013-10-15 18:52:00,59.7,52.5,30.19,SSE,158,10.0,14.0,77,0.00,,,0.00,meteohub,2013-10-15 22:52:00,
2013-10-15 18:57:00,59.9,52.7,30.19,South,180,11.0,12.0,77,0.00,,,0.00,meteohub,2013-10-15 22:57:00,
2013-10-15 19:02:00,59.5,52.3,30.19,South,180,13.0,13.0,77,0.00,,,0.00,meteohub,2013-10-15 23:02:00,
2013-10-15 19:07:00,59.5,52.3,30.18,SSE,158,9.0,13.0,77,0.00,,,0.00,meteohub,2013-10-15 23:07:00,
2013-10-15 19:12:00,59.2,52.0,30.18,SE,135,12.0,13.0,77,0.00,,,0.00,meteohub,2013-10-15 23:12:00,
2013-10-15 19:17:00,59.2,52.0,30.18,South,180,8.0,13.0,77,0.00,,,0.00,meteohub,2013-10-15 23:17:00,
2013-10-15 19:22:00,59.0,51.8,30.18,SSE,158,8.0,13.0,77,0.00,,,0.00,meteohub,2013-10-15 23:22:00,
2013-10-15 19:27:00,59.2,52.0,30.18,South,180,12.0,13.0,77,0.00,,,0.00,meteohub,2013-10-15 23:27:00,
2013-10-15 19:32:00,59.0,51.8,30.18,South,180,12.0,14.0,77,0.00,,,0.00,meteohub,2013-10-15 23:32:00,
2013-10-15 19:37:00,59.0,51.8,30.18,SSE,158,11.0,14.0,77,0.00,,,0.00,meteohub,2013-10-15 23:37:00,
2013-10-15 19:42:00,58.8,51.6,30.18,SSE,158,11.0,15.0,77,0.00,,,0.00,meteohub,2013-10-15 23:42:00,
2013-10-15 19:47:00,58.6,51.4,30.16,South,180,11.0,15.0,77,0.00,,,0.00,meteohub,2013-10-15 23:47:00,
2013-10-15 19:52:00,58.6,51.4,30.16,SSE,158,14.0,15.0,77,0.00,,,0.00,meteohub,2013-10-15 23:52:00,
2013-10-15 19:57:00,58.5,51.3,30.16,SSE,158,9.0,14.0,77,0.00,,,0.00,meteohub,2013-10-15 23:57:00,
2013-10-15 20:02:00,58.5,51.3,30.16,ESE,113,10.0,14.0,77,0.00,,,0.00,meteohub,2013-10-16 00:02:00,
2013-10-15 20:07:00,58.1,50.9,30.18,SE,135,10.0,14.0,77,0.00,,,0.00,meteohub,2013-10-16 00:07:00,
2013-10-15 20:12:00,57.9,51.1,30.18,SE,135,11.0,14.0,78,0.00,,,0.00,meteohub,2013-10-16 00:12:00,
2013-10-15 20:17:00,58.1,50.9,30.18,SSE,158,9.0,14.0,77,0.00,,,0.00,meteohub,2013-10-16 00:17:00,
2013-10-15 20:22:00,57.7,50.9,30.18,SE,135,12.0,14.0,78,0.00,,,0.00,meteohub,2013-10-16 00:22:00,
2013-10-15 20:27:00,57.7,50.9,30.18,SE,135,11.0,14.0,78,0.00,,,0.00,meteohub,2013-10-16 00:27:00,
2013-10-15 20:32:00,57.6,50.4,30.18,SE,135,11.0,12.0,77,0.00,,,0.00,meteohub,2013-10-16 00:32:00,
2013-10-15 20:37:00,57.4,50.2,30.18,SE,135,9.0,12.0,77,0.00,,,0.00,meteohub,2013-10-16 00:37:00,
2013-10-15 20:42:00,57.4,50.2,30.18,ENE,68,5.0,11.0,77,0.00,,,0.00,meteohub,2013-10-16 00:42:00,
2013-10-15 20:47:00,57.4,50.9,30.19,ESE,113,5.0,11.0,79,0.00,,,0.00,meteohub,2013-10-16 00:47:00,
2013-10-15 20:52:00,57.4,51.3,30.19,ENE,68,3.0,9.0,80,0.00,,,0.00,meteohub,2013-10-16 00:52:00,
2013-10-15 20:57:00,57.4,51.3,30.19,ESE,113,4.0,5.0,80,0.00,,,0.00,meteohub,2013-10-16 00:57:00,
2013-10-15 21:02:00,57.4,51.6,30.19,ESE,113,4.0,5.0,81,0.00,,,0.00,meteohub,2013-10-16 01:02:00,
2013-10-15 21:07:00,57.2,51.4,30.19,SE,135,5.0,5.0,81,0.00,,,0.00,meteohub,2013-10-16 01:07:00,
2013-10-15 21:12:00,57.4,51.6,30.19,ENE,68,3.0,5.0,81,0.00,,,0.00,meteohub,2013-10-16 01:12:00,
2013-10-15 21:17:00,57.2,51.4,30.19,ENE,68,6.0,6.0,81,0.00,,,0.00,meteohub,2013-10-16 01:17:00,
2013-10-15 21:22:00,57.0,51.3,30.19,West,270,2.0,6.0,81,0.00,,,0.00,meteohub,2013-10-16 01:22:00,
2013-10-15 21:27:00,57.0,51.3,30.19,East,90,6.0,7.0,81,0.00,,,0.00,meteohub,2013-10-16 01:27:00,
2013-10-15 21:32:00,57.0,51.3,30.19,East,90,4.0,7.0,81,0.00,,,0.00,meteohub,2013-10-16 01:32:00,
2013-10-15 21:37:00,56.7,50.9,30.19,South,180,6.0,7.0,81,0.00,,,0.00,meteohub,2013-10-16 01:37:00,
2013-10-15 21:42:00,56.5,50.7,30.19,SE,135,5.0,7.0,81,0.00,,,0.00,meteohub,2013-10-16 01:42:00,
2013-10-15 21:47:00,56.5,50.7,30.19,SE,135,12.0,12.0,81,0.00,,,0.00,meteohub,2013-10-16 01:47:00,
2013-10-15 21:52:00,56.1,50.4,30.19,SE,135,11.0,11.0,81,0.00,,,0.00,meteohub,2013-10-16 01:52:00,
2013-10-15 21:58:00,55.9,50.2,30.19,SE,135,8.0,12.0,81,0.00,,,0.00,meteohub,2013-10-16 01:58:00,
2013-10-15 22:03:00,55.8,50.4,30.19,SE,135,9.0,12.0,82,0.00,,,0.00,meteohub,2013-10-16 02:03:00,
2013-10-15 22:08:00,55.4,50.0,30.19,SE,135,10.0,11.0,82,0.00,,,0.00,meteohub,2013-10-16 02:08:00,
2013-10-15 22:13:00,55.2,49.8,30.19,SE,135,10.0,10.0,82,0.00,,,0.00,meteohub,2013-10-16 02:13:00,
2013-10-15 22:18:00,55.0,49.6,30.19,SE,135,10.0,10.0,82,0.00,,,0.00,meteohub,2013-10-16 02:18:00,
2013-10-15 22:23:00,55.2,49.8,30.19,SE,135,8.0,10.0,82,0.00,,,0.00,meteohub,2013-10-16 02:23:00,
2013-10-15 22:28:00,55.0,49.6,30.18,ESE,113,4.0,10.0,82,0.00,,,0.00,meteohub,2013-10-16 02:28:00,
2013-10-15 22:33:00,55.0,50.0,30.18,SE,135,4.0,10.0,83,0.00,,,0.00,meteohub,2013-10-16 02:33:00,
2013-10-15 22:38:00,55.2,50.2,30.18,ESE,113,4.0,8.0,83,0.00,,,0.00,meteohub,2013-10-16 02:38:00,
2013-10-15 22:44:00,55.2,50.5,30.17,North,0,6.0,6.0,84,0.00,,,0.00,meteohub,2013-10-16 02:44:00,
2013-10-15 22:49:00,55.6,50.9,30.17,East,90,7.0,7.0,84,0.00,,,0.00,meteohub,2013-10-16 02:49:00,
2013-10-15 22:54:00,55.6,50.9,30.17,ENE,68,5.0,6.0,84,0.00,,,0.00,meteohub,2013-10-16 02:54:00,
2013-10-15 22:59:00,55.4,50.7,30.17,ESE,113,9.0,9.0,84,0.00,,,0.00,meteohub,2013-10-16 02:59:00,
2013-10-15 23:04:00,55.6,50.9,30.17,SE,135,6.0,7.0,84,0.00,,,0.00,meteohub,2013-10-16 03:04:00,
2013-10-15 23:09:00,55.6,50.9,30.17,NE,45,6.0,9.0,84,0.00,,,0.00,meteohub,2013-10-16 03:09:00,
2013-10-15 23:14:00,55.6,50.9,30.17,SSE,158,6.0,9.0,84,0.00,,,0.00,meteohub,2013-10-16 03:14:00,
2013-10-15 23:19:00,55.6,51.1,30.17,SE,135,5.0,9.0,85,0.00,,,0.00,meteohub,2013-10-16 03:19:00,
2013-10-15 23:24:00,55.6,51.1,30.18,NE,45,4.0,6.0,85,0.00,,,0.00,meteohub,2013-10-16 03:24:00,
2013-10-15 23:29:00,55.6,51.1,30.18,East,90,6.0,6.0,85,0.00,,,0.00,meteohub,2013-10-16 03:29:00,
2013-10-15 23:35:00,55.4,50.9,30.18,SSW,203,5.0,6.0,85,0.00,,,0.00,meteohub,2013-10-16 03:35:00,
2013-10-15 23:40:00,55.6,51.1,30.18,SE,135,6.0,6.0,85,0.00,,,0.00,meteohub,2013-10-16 03:40:00,
2013-10-15 23:45:00,55.6,51.1,30.16,ENE,68,7.0,7.0,85,0.00,,,0.00,meteohub,2013-10-16 03:45:00,
2013-10-15 23:50:00,55.4,50.9,30.16,ESE,113,5.0,7.0,85,0.00,,,0.00,meteohub,2013-10-16 03:50:00,
2013-10-15 23:55:00,55.2,50.7,30.16,SE,135,7.0,7.0,85,0.00,,,0.00,meteohub,2013-10-16 03:55:00,